contact:dominique.lefevre@mio.osupytheas.fr, maurice.libes@osupytheas.fr, didier.mallarino@osupytheas.fr
Project:EMSO http://www.emso-fr.org/EMSO-France
Depth: 2436.0 m
Title:EMSO Ligure Ouest : Data MII capteur MICROCAT
DateTime_Computer,Latitude,Longitude,Temperature,Conductivity,Pressure,DateTime_Instrument
DateTime_Computer,Latitude,Longitude,degC,S m-1,dbar,DateTime_Instrument
2020-12-29T00:02:25Z,42.805,6.029,13.2990,4.59994,2469.97,2020-12-29T02:03:25Z
2020-12-29T00:05:28Z,42.805,6.029,13.2990,4.59995,2470.03,2020-12-29T02:06:28Z
2020-12-29T00:08:31Z,42.805,6.029,13.2990,4.59994,2469.984,2020-12-29T02:09:31Z
2020-12-29T00:11:34Z,42.805,6.029,13.2993,4.59994,2469.97,2020-12-29T02:12:34Z
2020-12-29T00:14:37Z,42.805,6.029,13.2991,4.59994,2469.993,2020-12-29T02:15:37Z
2020-12-29T00:17:40Z,42.805,6.029,13.2993,4.59994,2469.97,2020-12-29T02:18:40Z
2020-12-29T00:20:43Z,42.805,6.029,13.2986,4.59992,2469.97,2020-12-29T02:21:43Z
2020-12-29T00:23:46Z,42.805,6.029,13.2986,4.59994,2470.007,2020-12-29T02:24:46Z
2020-12-29T00:26:50Z,42.805,6.029,13.2988,4.59996,2469.993,2020-12-29T02:27:50Z
2020-12-29T00:29:53Z,42.805,6.029,13.2988,4.59996,2469.97,2020-12-29T02:30:53Z
2020-12-29T00:32:56Z,42.805,6.029,13.2991,4.59994,2469.984,2020-12-29T02:33:56Z
2020-12-29T00:35:59Z,42.805,6.029,13.2990,4.59993,2469.993,2020-12-29T02:36:59Z
2020-12-29T00:39:02Z,42.805,6.029,13.2987,4.59994,2470.007,2020-12-29T02:40:02Z
2020-12-29T00:42:05Z,42.805,6.029,13.2991,4.59996,2469.97,2020-12-29T02:43:05Z
2020-12-29T00:45:08Z,42.805,6.029,13.2993,4.59994,2469.96,2020-12-29T02:46:08Z
2020-12-29T00:48:11Z,42.805,6.029,13.2988,4.59995,2469.993,2020-12-29T02:49:11Z
2020-12-29T00:51:14Z,42.805,6.029,13.2989,4.59994,2470.007,2020-12-29T02:52:14Z
2020-12-29T00:54:18Z,42.805,6.029,13.2990,4.59995,2470.007,2020-12-29T02:55:18Z
2020-12-29T00:57:21Z,42.805,6.029,13.2989,4.59993,2469.97,2020-12-29T02:58:21Z
2020-12-29T01:00:24Z,42.805,6.029,13.2989,4.59995,2469.97,2020-12-29T03:01:24Z
2020-12-29T01:03:27Z,42.805,6.029,13.2990,4.59994,2469.984,2020-12-29T03:04:27Z
2020-12-29T01:06:30Z,42.805,6.029,13.2989,4.59993,2469.96,2020-12-29T03:07:30Z
2020-12-29T01:09:33Z,42.805,6.029,13.2990,4.59993,2469.984,2020-12-29T03:10:33Z
2020-12-29T01:12:36Z,42.805,6.029,13.2987,4.59995,2469.96,2020-12-29T03:13:36Z
2020-12-29T01:15:39Z,42.805,6.029,13.2987,4.59992,2470.017,2020-12-29T03:16:39Z
2020-12-29T01:18:43Z,42.805,6.029,13.2991,4.59994,2470.007,2020-12-29T03:19:43Z
2020-12-29T01:21:46Z,42.805,6.029,13.2991,4.59995,2469.97,2020-12-29T03:22:46Z
2020-12-29T01:24:49Z,42.805,6.029,13.2986,4.59996,2469.993,2020-12-29T03:25:49Z
2020-12-29T01:27:52Z,42.805,6.029,13.2988,4.59995,2470.007,2020-12-29T03:28:52Z
2020-12-29T01:30:55Z,42.805,6.029,13.2986,4.59995,2469.993,2020-12-29T03:31:55Z
2020-12-29T01:33:58Z,42.805,6.029,13.2991,4.59995,2469.984,2020-12-29T03:34:58Z
2020-12-29T01:37:01Z,42.805,6.029,13.2989,4.59992,2470.007,2020-12-29T03:38:01Z
2020-12-29T01:40:04Z,42.805,6.029,13.2990,4.59994,2469.984,2020-12-29T03:41:04Z
2020-12-29T01:43:08Z,42.805,6.029,13.2990,4.59995,2470.007,2020-12-29T03:44:08Z
2020-12-29T01:46:11Z,42.805,6.029,13.2986,4.59994,2470.017,2020-12-29T03:47:11Z
2020-12-29T01:49:14Z,42.805,6.029,13.2989,4.59993,2469.947,2020-12-29T03:50:14Z
2020-12-29T01:52:17Z,42.805,6.029,13.2990,4.59994,2469.97,2020-12-29T03:53:17Z
2020-12-29T01:55:20Z,42.805,6.029,13.2986,4.59994,2469.97,2020-12-29T03:56:20Z
2020-12-29T01:58:23Z,42.805,6.029,13.2990,4.59994,2469.97,2020-12-29T03:59:23Z
2020-12-29T02:01:26Z,42.805,6.029,13.2987,4.59995,2469.993,2020-12-29T04:02:26Z
2020-12-29T02:04:29Z,42.805,6.029,13.2990,4.59994,2469.984,2020-12-29T04:05:29Z
2020-12-29T02:07:33Z,42.805,6.029,13.2986,4.59997,2470.007,2020-12-29T04:08:33Z
2020-12-29T02:10:36Z,42.805,6.029,13.2987,4.59994,2470.007,2020-12-29T04:11:36Z
2020-12-29T02:13:39Z,42.805,6.029,13.2986,4.59993,2469.984,2020-12-29T04:14:39Z
2020-12-29T02:16:42Z,42.805,6.029,13.2987,4.59993,2469.984,2020-12-29T04:17:42Z
2020-12-29T02:19:45Z,42.805,6.029,13.2990,4.59991,2470.007,2020-12-29T04:20:45Z
2020-12-29T02:22:48Z,42.805,6.029,13.2987,4.59994,2470.007,2020-12-29T04:23:48Z
2020-12-29T02:25:51Z,42.805,6.029,13.2988,4.59994,2469.993,2020-12-29T04:26:51Z
2020-12-29T02:28:54Z,42.805,6.029,13.2987,4.59992,2470.03,2020-12-29T04:29:54Z
2020-12-29T02:31:58Z,42.805,6.029,13.2986,4.59993,2470.03,2020-12-29T04:32:58Z
2020-12-29T02:35:01Z,42.805,6.029,13.2990,4.59994,2469.984,2020-12-29T04:36:01Z
2020-12-29T02:38:04Z,42.805,6.029,13.2989,4.59992,2469.97,2020-12-29T04:39:04Z
2020-12-29T02:41:07Z,42.805,6.029,13.2984,4.59992,2470.017,2020-12-29T04:42:07Z
2020-12-29T02:44:10Z,42.805,6.029,13.2988,4.59993,2469.993,2020-12-29T04:45:10Z
2020-12-29T02:47:13Z,42.805,6.029,13.2982,4.59995,2469.993,2020-12-29T04:48:13Z
2020-12-29T02:50:16Z,42.805,6.029,13.2986,4.59993,2470.03,2020-12-29T04:51:16Z
2020-12-29T02:53:19Z,42.805,6.029,13.2984,4.59995,2470.03,2020-12-29T04:54:19Z
2020-12-29T02:56:23Z,42.805,6.029,13.2986,4.59995,2470.03,2020-12-29T04:57:23Z
2020-12-29T02:59:26Z,42.805,6.029,13.2987,4.59994,2470.017,2020-12-29T05:00:26Z
2020-12-29T03:02:29Z,42.805,6.029,13.2985,4.59992,2470.053,2020-12-29T05:03:29Z
2020-12-29T03:05:32Z,42.805,6.029,13.2992,4.59994,2470.04,2020-12-29T05:06:32Z
2020-12-29T03:08:35Z,42.805,6.029,13.2984,4.59996,2469.993,2020-12-29T05:09:35Z
2020-12-29T03:11:38Z,42.805,6.029,13.2982,4.59996,2470.017,2020-12-29T05:12:38Z
2020-12-29T03:14:41Z,42.805,6.029,13.2988,4.59994,2470.017,2020-12-29T05:15:41Z
2020-12-29T03:17:44Z,42.805,6.029,13.2989,4.59993,2470.04,2020-12-29T05:18:44Z
2020-12-29T03:20:47Z,42.805,6.029,13.2982,4.59994,2470.04,2020-12-29T05:21:47Z
2020-12-29T03:23:51Z,42.805,6.029,13.2986,4.59995,2470.017,2020-12-29T05:24:51Z
2020-12-29T03:26:54Z,42.805,6.029,13.2986,4.59993,2470.04,2020-12-29T05:27:54Z
2020-12-29T03:29:57Z,42.805,6.029,13.2988,4.59994,2470.063,2020-12-29T05:30:57Z
2020-12-29T03:33:00Z,42.805,6.029,13.2989,4.59994,2470.087,2020-12-29T05:34:00Z
2020-12-29T03:36:03Z,42.805,6.029,13.2985,4.59994,2470.1,2020-12-29T05:37:03Z
2020-12-29T03:39:06Z,42.805,6.029,13.2987,4.59994,2470.053,2020-12-29T05:40:06Z
2020-12-29T03:42:09Z,42.805,6.029,13.2987,4.59992,2470.087,2020-12-29T05:43:09Z
2020-12-29T03:45:12Z,42.805,6.029,13.2990,4.59994,2470.04,2020-12-29T05:46:12Z
2020-12-29T03:48:16Z,42.805,6.029,13.2985,4.59992,2470.063,2020-12-29T05:49:16Z
2020-12-29T03:51:19Z,42.805,6.029,13.2990,4.59994,2470.073,2020-12-29T05:52:19Z
2020-12-29T03:54:22Z,42.805,6.029,13.2984,4.59992,2470.077,2020-12-29T05:55:22Z
2020-12-29T03:57:25Z,42.805,6.029,13.2988,4.59993,2470.1,2020-12-29T05:58:25Z
2020-12-29T04:00:28Z,42.805,6.029,13.2989,4.59992,2470.087,2020-12-29T06:01:28Z
2020-12-29T04:03:31Z,42.805,6.029,13.2986,4.59992,2470.1,2020-12-29T06:04:31Z
2020-12-29T04:06:34Z,42.805,6.029,13.2986,4.59994,2470.087,2020-12-29T06:07:34Z
2020-12-29T04:09:37Z,42.805,6.029,13.2988,4.59994,2470.087,2020-12-29T06:10:37Z
2020-12-29T04:12:41Z,42.805,6.029,13.2990,4.59994,2470.087,2020-12-29T06:13:41Z
2020-12-29T04:15:44Z,42.805,6.029,13.2986,4.59996,2470.063,2020-12-29T06:16:44Z
2020-12-29T04:18:47Z,42.805,6.029,13.2986,4.59996,2470.087,2020-12-29T06:19:47Z
2020-12-29T04:21:50Z,42.805,6.029,13.2986,4.59994,2470.11,2020-12-29T06:22:50Z
2020-12-29T04:24:53Z,42.805,6.029,13.2987,4.59994,2470.11,2020-12-29T06:25:53Z
2020-12-29T04:27:56Z,42.805,6.029,13.2983,4.59995,2470.133,2020-12-29T06:28:56Z
2020-12-29T04:30:59Z,42.805,6.029,13.2989,4.59994,2470.133,2020-12-29T06:31:59Z
2020-12-29T04:34:02Z,42.805,6.029,13.2986,4.59994,2470.147,2020-12-29T06:35:02Z
2020-12-29T04:37:06Z,42.805,6.029,13.2987,4.59994,2470.133,2020-12-29T06:38:06Z
2020-12-29T04:40:09Z,42.805,6.029,13.2990,4.59996,2470.11,2020-12-29T06:41:09Z
2020-12-29T04:43:12Z,42.805,6.029,13.2986,4.59995,2470.133,2020-12-29T06:44:12Z
2020-12-29T04:46:15Z,42.805,6.029,13.2986,4.59994,2470.124,2020-12-29T06:47:15Z
2020-12-29T04:49:18Z,42.805,6.029,13.2989,4.59995,2470.133,2020-12-29T06:50:18Z
2020-12-29T04:52:21Z,42.805,6.029,13.2987,4.59994,2470.147,2020-12-29T06:53:21Z
2020-12-29T04:55:24Z,42.805,6.029,13.2990,4.59994,2470.133,2020-12-29T06:56:24Z
2020-12-29T04:58:27Z,42.805,6.029,13.2986,4.59996,2470.133,2020-12-29T06:59:27Z
2020-12-29T05:01:31Z,42.805,6.029,13.2988,4.59994,2470.171,2020-12-29T07:02:31Z
2020-12-29T05:04:34Z,42.805,6.029,13.2990,4.59994,2470.171,2020-12-29T07:05:34Z
2020-12-29T05:07:37Z,42.805,6.029,13.2988,4.59994,2470.171,2020-12-29T07:08:37Z
2020-12-29T05:10:40Z,42.805,6.029,13.2984,4.59993,2470.156,2020-12-29T07:11:40Z
2020-12-29T05:13:43Z,42.805,6.029,13.2984,4.59992,2470.156,2020-12-29T07:14:43Z
2020-12-29T05:16:46Z,42.805,6.029,13.2986,4.59994,2470.156,2020-12-29T07:17:46Z
2020-12-29T05:19:49Z,42.805,6.029,13.2986,4.59994,2470.171,2020-12-29T07:20:49Z
2020-12-29T05:22:52Z,42.805,6.029,13.2988,4.59994,2470.133,2020-12-29T07:23:52Z
2020-12-29T05:25:56Z,42.805,6.029,13.2990,4.59996,2470.18,2020-12-29T07:26:56Z
2020-12-29T05:28:59Z,42.805,6.029,13.2989,4.59995,2470.171,2020-12-29T07:29:59Z
2020-12-29T05:32:02Z,42.805,6.029,13.2987,4.59996,2470.171,2020-12-29T07:33:02Z
2020-12-29T05:35:05Z,42.805,6.029,13.2984,4.59994,2470.194,2020-12-29T07:36:05Z
2020-12-29T05:38:08Z,42.805,6.029,13.2987,4.59996,2470.18,2020-12-29T07:39:08Z
2020-12-29T05:41:11Z,42.805,6.029,13.2993,4.59993,2470.156,2020-12-29T07:42:11Z
2020-12-29T05:44:14Z,42.805,6.029,13.2985,4.59997,2470.203,2020-12-29T07:45:14Z
2020-12-29T05:47:17Z,42.805,6.029,13.2989,4.59994,2470.194,2020-12-29T07:48:17Z
2020-12-29T05:50:20Z,42.805,6.029,13.2989,4.59995,2470.133,2020-12-29T07:51:20Z
2020-12-29T05:53:24Z,42.805,6.029,13.2989,4.59995,2470.18,2020-12-29T07:54:24Z
2020-12-29T05:56:27Z,42.805,6.029,13.2989,4.59994,2470.203,2020-12-29T07:57:27Z
2020-12-29T05:59:30Z,42.805,6.029,13.2986,4.59994,2470.194,2020-12-29T08:00:30Z
2020-12-29T06:02:33Z,42.805,6.029,13.2985,4.59996,2470.189,2020-12-29T08:03:33Z
2020-12-29T06:05:36Z,42.805,6.029,13.2985,4.59993,2470.194,2020-12-29T08:06:36Z
2020-12-29T06:08:39Z,42.805,6.029,13.2983,4.59995,2470.203,2020-12-29T08:09:39Z
2020-12-29T06:11:42Z,42.805,6.029,13.2986,4.59993,2470.194,2020-12-29T08:12:42Z
2020-12-29T06:14:45Z,42.805,6.029,13.2990,4.59994,2470.203,2020-12-29T08:15:45Z
2020-12-29T06:17:49Z,42.805,6.029,13.2983,4.59994,2470.203,2020-12-29T08:18:49Z
2020-12-29T06:20:52Z,42.805,6.029,13.2990,4.59995,2470.24,2020-12-29T08:21:52Z
2020-12-29T06:23:55Z,42.805,6.029,13.2991,4.59994,2470.203,2020-12-29T08:24:55Z
2020-12-29T06:26:58Z,42.805,6.029,13.2990,4.59996,2470.217,2020-12-29T08:27:58Z
2020-12-29T06:30:01Z,42.805,6.029,13.2990,4.59994,2470.217,2020-12-29T08:31:01Z
2020-12-29T06:33:04Z,42.805,6.029,13.2987,4.59994,2470.203,2020-12-29T08:34:04Z
2020-12-29T06:36:07Z,42.805,6.029,13.2991,4.59995,2470.264,2020-12-29T08:37:07Z
2020-12-29T06:39:10Z,42.805,6.029,13.2991,4.59995,2470.24,2020-12-29T08:40:10Z
2020-12-29T06:42:14Z,42.805,6.029,13.2988,4.59996,2470.217,2020-12-29T08:43:14Z
2020-12-29T06:45:17Z,42.805,6.029,13.2990,4.59995,2470.194,2020-12-29T08:46:17Z
2020-12-29T06:48:20Z,42.805,6.029,13.2990,4.59994,2470.203,2020-12-29T08:49:20Z
2020-12-29T06:51:23Z,42.805,6.029,13.2987,4.59994,2470.227,2020-12-29T08:52:23Z
2020-12-29T06:54:26Z,42.805,6.029,13.2990,4.59994,2470.217,2020-12-29T08:55:26Z
2020-12-29T06:57:29Z,42.805,6.029,13.2986,4.59995,2470.227,2020-12-29T08:58:29Z
2020-12-29T07:00:32Z,42.805,6.029,13.2986,4.59994,2470.217,2020-12-29T09:01:32Z
2020-12-29T07:03:35Z,42.805,6.029,13.2986,4.59995,2470.217,2020-12-29T09:04:35Z
2020-12-29T07:06:38Z,42.805,6.029,13.2991,4.59994,2470.24,2020-12-29T09:07:39Z
2020-12-29T07:09:42Z,42.805,6.029,13.2988,4.59995,2470.24,2020-12-29T09:10:42Z
2020-12-29T07:12:45Z,42.805,6.029,13.2989,4.59994,2470.203,2020-12-29T09:13:45Z
2020-12-29T07:15:48Z,42.805,6.029,13.2990,4.59994,2470.217,2020-12-29T09:16:48Z
2020-12-29T07:18:51Z,42.805,6.029,13.2993,4.59995,2470.203,2020-12-29T09:19:51Z
2020-12-29T07:21:54Z,42.805,6.029,13.2990,4.59995,2470.227,2020-12-29T09:22:54Z
2020-12-29T07:24:57Z,42.805,6.029,13.2986,4.59995,2470.227,2020-12-29T09:25:57Z
2020-12-29T07:28:00Z,42.805,6.029,13.2988,4.59995,2470.24,2020-12-29T09:29:00Z
2020-12-29T07:31:03Z,42.805,6.029,13.2988,4.59994,2470.264,2020-12-29T09:32:04Z
2020-12-29T07:34:07Z,42.805,6.029,13.2987,4.59994,2470.25,2020-12-29T09:35:07Z
2020-12-29T07:37:10Z,42.805,6.029,13.2988,4.59993,2470.227,2020-12-29T09:38:10Z
2020-12-29T07:40:13Z,42.805,6.029,13.2986,4.59994,2470.217,2020-12-29T09:41:13Z
2020-12-29T07:43:16Z,42.805,6.029,13.2991,4.59995,2470.24,2020-12-29T09:44:16Z
2020-12-29T07:46:19Z,42.805,6.029,13.2986,4.59994,2470.24,2020-12-29T09:47:19Z
2020-12-29T07:49:22Z,42.805,6.029,13.2986,4.59996,2470.203,2020-12-29T09:50:22Z
2020-12-29T07:52:25Z,42.805,6.029,13.2987,4.59992,2470.18,2020-12-29T09:53:25Z
2020-12-29T07:55:28Z,42.805,6.029,13.2991,4.59994,2470.227,2020-12-29T09:56:28Z
2020-12-29T07:58:32Z,42.805,6.029,13.2988,4.59994,2470.227,2020-12-29T09:59:32Z
2020-12-29T08:01:35Z,42.805,6.029,13.2989,4.59994,2470.24,2020-12-29T10:02:35Z
2020-12-29T08:04:38Z,42.805,6.029,13.2986,4.59994,2470.227,2020-12-29T10:05:38Z
2020-12-29T08:07:41Z,42.805,6.029,13.2988,4.59993,2470.227,2020-12-29T10:08:41Z
2020-12-29T08:10:44Z,42.805,6.029,13.2990,4.59994,2470.24,2020-12-29T10:11:44Z
2020-12-29T08:13:47Z,42.805,6.029,13.2988,4.59993,2470.227,2020-12-29T10:14:47Z
2020-12-29T08:16:50Z,42.805,6.029,13.2988,4.59993,2470.264,2020-12-29T10:17:50Z
2020-12-29T08:19:53Z,42.805,6.029,13.2989,4.59994,2470.227,2020-12-29T10:20:54Z
2020-12-29T08:22:57Z,42.805,6.029,13.2990,4.59994,2470.236,2020-12-29T10:23:57Z
2020-12-29T08:26:00Z,42.805,6.029,13.2988,4.59992,2470.217,2020-12-29T10:27:00Z
2020-12-29T08:29:03Z,42.805,6.029,13.2986,4.59994,2470.24,2020-12-29T10:30:03Z
2020-12-29T08:32:06Z,42.805,6.029,13.2986,4.59992,2470.227,2020-12-29T10:33:06Z
2020-12-29T08:35:09Z,42.805,6.029,13.2989,4.59994,2470.217,2020-12-29T10:36:09Z
2020-12-29T08:38:12Z,42.805,6.029,13.2985,4.59993,2470.227,2020-12-29T10:39:12Z
2020-12-29T08:41:15Z,42.805,6.029,13.2991,4.59994,2470.203,2020-12-29T10:42:15Z
2020-12-29T08:44:19Z,42.805,6.029,13.2987,4.59994,2470.227,2020-12-29T10:45:19Z
2020-12-29T08:47:22Z,42.805,6.029,13.2986,4.59994,2470.217,2020-12-29T10:48:22Z
2020-12-29T08:50:25Z,42.805,6.029,13.2983,4.59994,2470.227,2020-12-29T10:51:25Z
2020-12-29T08:53:28Z,42.805,6.029,13.2987,4.59996,2470.203,2020-12-29T10:54:28Z
2020-12-29T08:56:31Z,42.805,6.029,13.2989,4.59993,2470.227,2020-12-29T10:57:31Z
2020-12-29T08:59:34Z,42.805,6.029,13.2986,4.59993,2470.189,2020-12-29T11:00:34Z
2020-12-29T09:02:37Z,42.805,6.029,13.2991,4.59993,2470.24,2020-12-29T11:03:37Z
2020-12-29T09:05:40Z,42.805,6.029,13.2989,4.59992,2470.24,2020-12-29T11:06:40Z
2020-12-29T09:08:44Z,42.805,6.029,13.2989,4.59994,2470.18,2020-12-29T11:09:44Z
2020-12-29T09:11:47Z,42.805,6.029,13.2989,4.59993,2470.227,2020-12-29T11:12:47Z
2020-12-29T09:14:50Z,42.805,6.029,13.2988,4.59992,2470.24,2020-12-29T11:15:50Z
2020-12-29T09:17:53Z,42.805,6.029,13.2985,4.59993,2470.203,2020-12-29T11:18:53Z
2020-12-29T09:20:56Z,42.805,6.029,13.2991,4.59992,2470.217,2020-12-29T11:21:56Z
2020-12-29T09:23:59Z,42.805,6.029,13.2987,4.59991,2470.203,2020-12-29T11:24:59Z
2020-12-29T09:27:02Z,42.805,6.029,13.2987,4.59992,2470.194,2020-12-29T11:28:02Z
2020-12-29T09:30:05Z,42.805,6.029,13.2986,4.59992,2470.203,2020-12-29T11:31:05Z
2020-12-29T09:33:09Z,42.805,6.029,13.2986,4.59992,2470.203,2020-12-29T11:34:09Z
2020-12-29T09:36:12Z,42.805,6.029,13.2988,4.59993,2470.203,2020-12-29T11:37:12Z
2020-12-29T09:39:15Z,42.805,6.029,13.2983,4.59991,2470.203,2020-12-29T11:40:15Z
2020-12-29T09:42:18Z,42.805,6.029,13.2990,4.59992,2470.203,2020-12-29T11:43:18Z
2020-12-29T09:45:21Z,42.805,6.029,13.2985,4.59992,2470.18,2020-12-29T11:46:21Z
2020-12-29T09:48:24Z,42.805,6.029,13.2983,4.59991,2470.203,2020-12-29T11:49:24Z
2020-12-29T09:51:27Z,42.805,6.029,13.2990,4.59993,2470.18,2020-12-29T11:52:27Z
2020-12-29T09:54:30Z,42.805,6.029,13.2987,4.59993,2470.171,2020-12-29T11:55:30Z
2020-12-29T09:57:34Z,42.805,6.029,13.2990,4.59992,2470.18,2020-12-29T11:58:34Z
2020-12-29T10:00:37Z,42.805,6.029,13.2986,4.59992,2470.18,2020-12-29T12:01:37Z
2020-12-29T10:03:40Z,42.805,6.029,13.2984,4.59993,2470.203,2020-12-29T12:04:40Z
2020-12-29T10:06:43Z,42.805,6.029,13.2985,4.59993,2470.18,2020-12-29T12:07:43Z
2020-12-29T10:09:46Z,42.805,6.029,13.2986,4.59994,2470.194,2020-12-29T12:10:46Z
2020-12-29T10:12:49Z,42.805,6.029,13.2987,4.59991,2470.171,2020-12-29T12:13:49Z
2020-12-29T10:15:52Z,42.805,6.029,13.2991,4.59993,2470.171,2020-12-29T12:16:52Z
2020-12-29T10:18:55Z,42.805,6.029,13.2990,4.59994,2470.156,2020-12-29T12:19:55Z
2020-12-29T10:21:59Z,42.805,6.029,13.2990,4.59994,2470.18,2020-12-29T12:22:59Z
2020-12-29T10:25:02Z,42.805,6.029,13.2984,4.59995,2470.18,2020-12-29T12:26:02Z
2020-12-29T10:28:05Z,42.805,6.029,13.2987,4.59992,2470.194,2020-12-29T12:29:05Z
2020-12-29T10:31:08Z,42.805,6.029,13.2991,4.59993,2470.156,2020-12-29T12:32:08Z
2020-12-29T10:34:11Z,42.805,6.029,13.2986,4.59991,2470.171,2020-12-29T12:35:11Z
2020-12-29T10:37:14Z,42.805,6.029,13.2986,4.59991,2470.194,2020-12-29T12:38:14Z
2020-12-29T10:40:17Z,42.805,6.029,13.2989,4.59991,2470.156,2020-12-29T12:41:17Z
2020-12-29T10:43:20Z,42.805,6.029,13.2983,4.59992,2470.171,2020-12-29T12:44:21Z
2020-12-29T10:46:24Z,42.805,6.029,13.2987,4.59992,2470.171,2020-12-29T12:47:24Z
2020-12-29T10:49:27Z,42.805,6.029,13.2989,4.59996,2470.156,2020-12-29T12:50:27Z
2020-12-29T10:52:30Z,42.805,6.029,13.2986,4.59993,2470.171,2020-12-29T12:53:30Z
2020-12-29T10:55:33Z,42.805,6.029,13.2986,4.59993,2470.147,2020-12-29T12:56:33Z
2020-12-29T10:58:36Z,42.805,6.029,13.2984,4.59992,2470.156,2020-12-29T12:59:36Z
2020-12-29T11:01:39Z,42.805,6.029,13.2986,4.59992,2470.156,2020-12-29T13:02:39Z
2020-12-29T11:04:42Z,42.805,6.029,13.2986,4.59993,2470.18,2020-12-29T13:05:42Z
2020-12-29T11:07:45Z,42.805,6.029,13.2987,4.59991,2470.156,2020-12-29T13:08:46Z
2020-12-29T11:10:49Z,42.805,6.029,13.2989,4.59992,2470.133,2020-12-29T13:11:49Z
2020-12-29T11:13:52Z,42.805,6.029,13.2986,4.59992,2470.096,2020-12-29T13:14:52Z
2020-12-29T11:16:55Z,42.805,6.029,13.2987,4.59992,2470.171,2020-12-29T13:17:55Z
2020-12-29T11:19:58Z,42.805,6.029,13.2987,4.59993,2470.156,2020-12-29T13:20:58Z
2020-12-29T11:23:01Z,42.805,6.029,13.2986,4.59991,2470.171,2020-12-29T13:24:01Z
2020-12-29T11:26:04Z,42.805,6.029,13.2990,4.59994,2470.171,2020-12-29T13:27:04Z
2020-12-29T11:29:07Z,42.805,6.029,13.2986,4.59996,2470.087,2020-12-29T13:30:07Z
2020-12-29T11:32:11Z,42.805,6.029,13.2991,4.59993,2470.133,2020-12-29T13:33:11Z
2020-12-29T11:35:14Z,42.805,6.029,13.2989,4.59995,2470.156,2020-12-29T13:36:14Z
2020-12-29T11:38:17Z,42.805,6.029,13.2989,4.59993,2470.11,2020-12-29T13:39:17Z
2020-12-29T11:41:20Z,42.805,6.029,13.2984,4.59994,2470.133,2020-12-29T13:42:20Z
2020-12-29T11:44:23Z,42.805,6.029,13.2988,4.59993,2470.147,2020-12-29T13:45:23Z
2020-12-29T11:47:26Z,42.805,6.029,13.2986,4.59992,2470.133,2020-12-29T13:48:26Z
2020-12-29T11:50:29Z,42.805,6.029,13.2990,4.59991,2470.119,2020-12-29T13:51:29Z
2020-12-29T11:53:32Z,42.805,6.029,13.2990,4.59991,2470.119,2020-12-29T13:54:32Z
2020-12-29T11:56:36Z,42.805,6.029,13.2990,4.59993,2470.171,2020-12-29T13:57:36Z
2020-12-29T11:59:39Z,42.805,6.029,13.2985,4.59991,2470.133,2020-12-29T14:00:39Z
2020-12-29T12:02:42Z,42.805,6.029,13.2989,4.59993,2470.11,2020-12-29T14:03:42Z
2020-12-29T12:05:45Z,42.805,6.029,13.2990,4.59993,2470.171,2020-12-29T14:06:45Z
2020-12-29T12:08:48Z,42.805,6.029,13.2984,4.59992,2470.11,2020-12-29T14:09:48Z
2020-12-29T12:11:51Z,42.805,6.029,13.2983,4.59993,2470.11,2020-12-29T14:12:51Z
2020-12-29T12:14:54Z,42.805,6.029,13.2988,4.59991,2470.124,2020-12-29T14:15:54Z
2020-12-29T12:17:57Z,42.805,6.029,13.2983,4.59993,2470.133,2020-12-29T14:18:57Z
2020-12-29T12:21:01Z,42.805,6.029,13.2985,4.59993,2470.11,2020-12-29T14:22:01Z
2020-12-29T12:24:04Z,42.805,6.029,13.2984,4.59993,2470.124,2020-12-29T14:25:04Z
2020-12-29T12:27:07Z,42.805,6.029,13.2986,4.59992,2470.11,2020-12-29T14:28:07Z
2020-12-29T12:30:10Z,42.805,6.029,13.2987,4.59992,2470.11,2020-12-29T14:31:10Z
2020-12-29T12:33:13Z,42.805,6.029,13.2985,4.59991,2470.124,2020-12-29T14:34:13Z
2020-12-29T12:36:16Z,42.805,6.029,13.2990,4.59995,2470.11,2020-12-29T14:37:16Z
2020-12-29T12:39:19Z,42.805,6.029,13.2986,4.59991,2470.11,2020-12-29T14:40:19Z
2020-12-29T12:42:22Z,42.805,6.029,13.2989,4.59991,2470.124,2020-12-29T14:43:22Z
2020-12-29T12:45:26Z,42.805,6.029,13.2986,4.59992,2470.124,2020-12-29T14:46:26Z
2020-12-29T12:48:29Z,42.805,6.029,13.2986,4.59995,2470.087,2020-12-29T14:49:29Z
2020-12-29T12:51:32Z,42.805,6.029,13.2988,4.59994,2470.1,2020-12-29T14:52:32Z
2020-12-29T12:54:35Z,42.805,6.029,13.2990,4.59995,2470.11,2020-12-29T14:55:35Z
2020-12-29T12:57:38Z,42.805,6.029,13.2991,4.59991,2470.1,2020-12-29T14:58:38Z
2020-12-29T13:00:41Z,42.805,6.029,13.2987,4.59991,2470.087,2020-12-29T15:01:41Z
2020-12-29T13:03:44Z,42.805,6.029,13.2984,4.59992,2470.087,2020-12-29T15:04:44Z
2020-12-29T13:06:47Z,42.805,6.029,13.2986,4.59991,2470.063,2020-12-29T15:07:47Z
2020-12-29T13:09:51Z,42.805,6.029,13.2984,4.59991,2470.11,2020-12-29T15:10:51Z
2020-12-29T13:12:54Z,42.805,6.029,13.2989,4.59991,2470.1,2020-12-29T15:13:54Z
2020-12-29T13:15:57Z,42.805,6.029,13.2985,4.59991,2470.11,2020-12-29T15:16:57Z
2020-12-29T13:19:00Z,42.805,6.029,13.2987,4.59993,2470.11,2020-12-29T15:20:00Z
2020-12-29T13:22:03Z,42.805,6.029,13.2990,4.59992,2470.1,2020-12-29T15:23:03Z
2020-12-29T13:25:06Z,42.805,6.029,13.2987,4.59992,2470.096,2020-12-29T15:26:06Z
2020-12-29T13:28:09Z,42.805,6.029,13.2987,4.59991,2470.063,2020-12-29T15:29:09Z
2020-12-29T13:31:12Z,42.805,6.029,13.2981,4.59992,2470.087,2020-12-29T15:32:13Z
2020-12-29T13:34:16Z,42.805,6.029,13.2984,4.59991,2470.1,2020-12-29T15:35:16Z
2020-12-29T13:37:19Z,42.805,6.029,13.2987,4.59992,2470.1,2020-12-29T15:38:19Z
2020-12-29T13:40:22Z,42.805,6.029,13.2986,4.59991,2470.087,2020-12-29T15:41:22Z
2020-12-29T13:43:25Z,42.805,6.029,13.2986,4.59991,2470.1,2020-12-29T15:44:25Z
2020-12-29T13:46:28Z,42.805,6.029,13.2987,4.59991,2470.1,2020-12-29T15:47:28Z
2020-12-29T13:49:31Z,42.805,6.029,13.2986,4.59991,2470.11,2020-12-29T15:50:31Z
2020-12-29T13:52:34Z,42.805,6.029,13.2989,4.59989,2470.087,2020-12-29T15:53:34Z
2020-12-29T13:55:37Z,42.805,6.029,13.2985,4.59988,2470.124,2020-12-29T15:56:38Z
2020-12-29T13:58:41Z,42.805,6.029,13.2983,4.59992,2470.11,2020-12-29T15:59:41Z
2020-12-29T14:01:44Z,42.805,6.029,13.2985,4.59991,2470.1,2020-12-29T16:02:44Z
2020-12-29T14:04:47Z,42.805,6.029,13.2985,4.59989,2470.11,2020-12-29T16:05:47Z
2020-12-29T14:07:50Z,42.805,6.029,13.2983,4.59989,2470.087,2020-12-29T16:08:50Z
2020-12-29T14:10:53Z,42.805,6.029,13.2986,4.59989,2470.124,2020-12-29T16:11:53Z
2020-12-29T14:13:56Z,42.805,6.029,13.2988,4.59988,2470.11,2020-12-29T16:14:56Z
2020-12-29T14:16:59Z,42.805,6.029,13.2983,4.59989,2470.087,2020-12-29T16:17:59Z
2020-12-29T14:20:03Z,42.805,6.029,13.2983,4.59987,2470.063,2020-12-29T16:21:03Z
2020-12-29T14:23:06Z,42.805,6.029,13.2990,4.59990,2470.11,2020-12-29T16:24:06Z
2020-12-29T14:26:09Z,42.805,6.029,13.2986,4.59988,2470.124,2020-12-29T16:27:09Z
2020-12-29T14:29:12Z,42.805,6.029,13.2984,4.59989,2470.124,2020-12-29T16:30:12Z
2020-12-29T14:32:15Z,42.805,6.029,13.2982,4.59989,2470.171,2020-12-29T16:33:15Z
2020-12-29T14:35:18Z,42.805,6.029,13.2984,4.59987,2470.11,2020-12-29T16:36:18Z
2020-12-29T14:38:21Z,42.805,6.029,13.2982,4.59987,2470.11,2020-12-29T16:39:21Z
2020-12-29T14:41:24Z,42.805,6.029,13.2983,4.59990,2470.063,2020-12-29T16:42:24Z
2020-12-29T14:44:28Z,42.805,6.029,13.2985,4.59991,2470.11,2020-12-29T16:45:28Z
2020-12-29T14:47:31Z,42.805,6.029,13.2980,4.59987,2470.133,2020-12-29T16:48:31Z
2020-12-29T14:50:34Z,42.805,6.029,13.2985,4.59987,2470.11,2020-12-29T16:51:34Z
2020-12-29T14:53:37Z,42.805,6.029,13.2983,4.59988,2470.11,2020-12-29T16:54:37Z
2020-12-29T14:56:40Z,42.805,6.029,13.2984,4.59991,2470.133,2020-12-29T16:57:40Z
2020-12-29T14:59:43Z,42.805,6.029,13.2980,4.59990,2470.147,2020-12-29T17:00:43Z
2020-12-29T15:02:46Z,42.805,6.029,13.2981,4.59989,2470.11,2020-12-29T17:03:46Z